Weather History for KGNA - February, 2013

Change the Weather History Date:

Tuesday, February 12, 2013

  Actual Average (KCKC) Record (KCKC)
Temperature  
Mean Temperature 19 °F -  
Max Temperature 28 °F 20 °F 32 °F (2005)
Min Temperature 10 °F 4 °F -18 °F (2003)
Degree Days  
Heating Degree Days 46    
Moisture  
Dew Point 16 °F    
Average Humidity 77    
Maximum Humidity 84    
Minimum Humidity 68    
Precipitation  
Precipitation 0.00 in - - ()
Sea Level Pressure  
Sea Level Pressure 29.84 in    
Wind  
Wind Speed 6 mph (West)    
Max Wind Speed 18 mph    
Max Gust Speed 26 mph    
Averages and records for this station are not official NWS values.
T = Trace of Precipitation, MM = Missing Value Source: NWS Daily Summary

Daily Weather History Graph

Daily Weather History Graph

Search for Another Location

Airport or City:

Trip Planner

Search our weather history database for the weather conditions in past years. The results will help you decide how hot, cold, wet, or windy it might be!

Date:

Astronomy

Feb. 12, 2013 Rise Set
Actual Time 7:11 AM CST 5:20 PM CST
Civil Twilight 6:39 AM CST 5:52 PM CST
Nautical Twilight 6:03 AM CST 6:28 PM CST
Astronomical Twilight 5:27 AM CST 7:04 PM CST
Moon 7:53 AM CST (2/12) 8:39 PM CST (2/12)
Length of Visible Light 11h 12m
Length of Day
10h 08m
Waxing Crescent, 7% of the Moon is Illuminated
Feb 12
Waxing Crescent
Feb 17
First Quarter
Feb 25
Full
Mar 4
Last Quarter
Mar 11
New

Hourly Weather History & Observations

Time (CST) Temp. Windchill Dew Point Humidity Pressure Visibility Wind Dir Wind Speed Gust Speed Precip Events Conditions
12:56 AM 14.0 °F 8.2 °F 9.0 °F 80% 29.93 in - West 3.5 mph - N/A   Unknown
1:56 AM 10.9 °F 2.9 °F 7.0 °F 84% 29.94 in - NW 4.6 mph - N/A   Unknown
2:56 AM 14.0 °F 8.2 °F 8.1 °F 77% 29.94 in - WNW 3.5 mph - N/A   Unknown
3:56 AM 15.1 °F - 10.0 °F 80% 29.94 in - Calm Calm - N/A   Unknown
4:56 AM 18.0 °F 12.7 °F 12.0 °F 78% 29.94 in - West 3.5 mph - N/A   Unknown
5:56 AM 19.9 °F 13.4 °F 12.9 °F 74% 29.94 in - West 4.6 mph - N/A   Unknown
6:56 AM 19.0 °F 13.9 °F 12.9 °F 77% 29.94 in - WNW 3.5 mph - N/A   Unknown
7:56 AM 18.0 °F 11.1 °F 10.9 °F 74% 29.92 in - WNW 4.6 mph - N/A   Unknown
8:56 AM 23.0 °F 13.1 °F 14.0 °F 68% 29.92 in - West 9.2 mph - N/A   Unknown
9:56 AM 21.9 °F 7.3 °F 15.1 °F 75% 29.91 in - WSW 18.4 mph 26.5 mph N/A   Unknown
10:56 AM 23.0 °F 12.4 °F 17.1 °F 78% 29.89 in - WSW 10.4 mph - N/A   Unknown
11:56 AM 24.1 °F 12.0 °F 17.1 °F 75% 29.87 in - SW 13.8 mph - N/A   Unknown
12:56 PM 26.1 °F 14.5 °F 19.0 °F 75% 29.84 in - SW 13.8 mph - N/A   Unknown
1:56 PM 27.0 °F 17.3 °F 19.9 °F 75% 29.81 in - WSW 10.4 mph - N/A   Unknown
2:56 PM 28.0 °F 18.6 °F 21.9 °F 78% 29.79 in - WSW 10.4 mph - N/A   Unknown
3:56 PM 28.9 °F 21.1 °F 23.0 °F 78% 29.79 in - WSW 8.1 mph 19.6 mph N/A   Unknown
4:56 PM 28.9 °F 23.9 °F 21.9 °F 75% 29.77 in - Variable 4.6 mph - N/A   Unknown
5:56 PM 28.9 °F 23.9 °F 21.9 °F 75% 29.76 in - West 4.6 mph - N/A   Unknown
6:56 PM 28.0 °F 22.8 °F 21.0 °F 75% 29.75 in - West 4.6 mph - N/A   Unknown
7:56 PM 26.1 °F 20.5 °F 19.9 °F 78% 29.74 in - West 4.6 mph - N/A   Unknown
8:56 PM 24.1 °F - 19.0 °F 81% 29.73 in - Calm Calm - N/A   Unknown
9:56 PM 27.0 °F 23.0 °F 19.9 °F 75% 29.71 in - West 3.5 mph - N/A   Unknown
10:56 PM 26.1 °F 21.9 °F 19.0 °F 75% 29.69 in - WNW 3.5 mph - N/A   Unknown
11:56 PM 26.1 °F 20.5 °F 19.9 °F 78% 29.68 in - West 4.6 mph - N/A   Unknown